Wind_Speed
17 18 20 22 21 22 26 27 24 25 23 24 21 22 23 24 25 26 25 25 26 25
4 7 7 14 20 19 17 19 19 17 15 15 14 16 21 23 22 24 24 25 27 26
8 6 6 7 9 12 14 16 13 14 14 13 11 14 15 20 21 23 26 25 25 25
8 6 4 5 4 5 9 12 9 4 2 3 8 13 13 16 22 24 22 22 22 12
13 12 10 5 3 4 6 8 7 5 6 7 5 3 4 5 4 8 8 10 9 13
18 18 17 15 10 12 12 14 12 12 14 12 10 10 10 11 13 9 13 10 11 9
13 13 13 13 13 13 12 15 18 15 14 16 12 11 11 11 16 9 10 11 11 10
7 8 10 10 9 11 11 12 13 13 13 13 10 9 7 13 11 9 11 11 11 12
5 5 7 7 9 9 10 11 12 13 14 14 12 8 10 8 8 7 9 11 11 8
2 3 5 4 5 8 9 8 10 12 11 11 10 9 8 8 8 8 8 7 6 6
1 1 2 3 4 5 5 6 6 6 6 7 8 8 7 7 6 7 6 6 5 5
4 3 3 3 3 3 3 4 4 3 2 4 6 6 5 3 4 4 5 5 6 6
10 10 9 7 6 5 5 4 4 3 1 1 1 3 4 2 3 3 5 4 5 3
15 14 12 11 11 10 9 7 6 4 4 3 2 2 4 4 4 5 6 8 8 8
Wind_Direction
257 249 253 255 260 262 262 264 266 249 250 256 244 238 239 245 246 244 249 246 247 247
245 243 258 261 255 260 263 274 268 255 260 259 259 246 247 246 248 248 254 258 260 259
20 7 346 300 263 258 254 259 255 235 237 240 248 249 252 259 260 264 264 261 263 258
27 13 332 303 275 250 244 242 217 186 215 268 284 288 278 264 266 259 257 253 247 226
67 69 65 75 113 158 156 157 158 160 129 90 89 109 200 169 82 184 153 155 135 128
56 63 66 69 90 113 117 125 126 120 106 94 89 91 86 97 106 43 97 91 106 94
43 48 56 63 69 77 85 98 103 104 102 94 77 72 75 77 69 77 74 80 79 91
29 37 46 53 57 67 71 77 87 93 94 92 86 74 78 80 103 115 102 89 83 79
23 39 60 75 80 84 91 94 95 93 83 80 85 87 79 91 98 97 84 86 93 90
32 46 55 60 77 79 77 81 80 73 77 84 83 93 90 94 92 89 86 90 99 74
166 127 84 89 81 81 80 74 70 77 74 67 64 79 80 85 84 82 73 62 55 52
206 193 177 169 154 134 122 114 113 107 60 51 47 42 72 96 96 74 56 45 30 10
204 201 200 192 184 178 172 159 164 168 141 101 95 37 54 64 66 47 28 30 28 43
206 206 204 200 197 193 190 186 187 202 205 230 278 314 7 12 2 12 2 356 349 336
Height
740 740 741 742 743 745 746 747 748 749 749 751 752 755 756 759 760 762 763 763 763 764
738 738 737 737 740 742 744 744 745 746 747 748 749 751 753 753 755 757 758 759 758 758
738 736 735 737 737 739 740 741 742 743 744 745 747 748 749 750 752 752 753 754 753 753
738 736 736 736 737 737 738 739 742 741 742 742 744 745 746 747 747 748 748 748 749 748
742 739 738 738 737 738 738 739 739 739 741 741 743 744 745 744 745 743 743 746 743 742
747 744 744 742 741 740 741 738 738 740 741 743 745 745 746 745 743 751 744 746 743 745
752 751 748 746 745 743 742 742 740 743 746 742 747 748 749 748 740 750 749 747 748 751
756 754 753 751 750 748 746 746 745 747 747 746 749 751 751 743 750 755 754 753 753 752
758 756 755 754 753 751 752 751 750 750 748 748 751 752 752 753 755 756 754 754 755 755
757 756 756 755 754 753 753 752 751 750 751 753 754 755 755 756 756 757 756 757 758 756
756 756 756 756 755 755 754 753 753 753 755 755 755 754 755 756 757 758 759 758 758 756
756 757 756 756 756 756 756 755 756 757 756 756 757 756 756 757 758 759 758 759 758 757
752 751 752 753 754 754 754 754 755 756 757 757 758 759 758 757 757 757 757 758 758 758
748 749 750 751 751 751 752 753 754 756 756 757 758 758 757 757 757 757 757 757 757 756